{"data":{"norad_id":63278,"intl_designator":"2025-053P","name":"STARLINK-33660","alt_names":[],"object_type":"PAYLOAD","status":"ACTIVE","operator":null,"country":"US","launch_date":"2025-03-15","launch_site_code":"AFETR","launch_vehicle":null,"mission":null,"orbit_class":"UNKNOWN","rcs_meters":null,"size_class":null,"mass_kg":null,"dimensions":null,"purposes":["comms"],"wikipedia_slug":null,"has_3d_model":false,"image_url":null,"decayed_at":null,"tle_current":{"epoch":"2026-05-24T13:24:21.913344Z","epoch_age_seconds":120150,"freshness":"FRESH","line1":"1 63278U 25053P   26144.55858696  .00005946  00000+0  22541-3 0  9990","line2":"2 63278  43.0000 173.5662 0001301 277.4093  82.6611 15.27582129 67797","mean_motion":15.27582129,"eccentricity":0.0001301,"inclination_deg":43,"raan_deg":173.5662,"arg_perigee_deg":277.4093,"mean_anomaly_deg":82.6611,"bstar":0.00022541,"rev_number":6779,"period_min":94.266617333542,"perigee_km":482.15008157344,"apogee_km":483.93536053686,"semimajor_km":6861.1797210552,"source":"CELESTRAK","updated_at":"2026-05-25T13:38:19.926864Z"}}}